Location: *
(51.1248°S, 108.4023°W)
Time: 03:51:26
(UTC+00:00)

Cosmos 2219 - Pass Details

Date: 15 June 2021
Orbit: 832 x 861 km, 71.1° (Epoch: 31 July)

Event Time Altitude Azimuth Distance (km) Brightness Sun altitude
Exits shadow 13:18:38 13° 204° (SSW) 2,270 5.1 -17.3°
Maximum altitude 13:23:41 59° 125° (SE) 972 3.7 -16.5°
Drops below altitude 10° 13:29:15 10° 45° (NE) 2,456 6.6 -15.7°
Sets 13:31:43 0° 41° (NE) 3,383 7.4 -15.3°
